Time,TemperatureF,DewpointF,PressureIn,WindDirection,WindDirectionDegrees,WindSpeedMPH,WindSpeedGustMPH,Humidity,HourlyPrecipIn,Conditions,Clouds,dailyrainin,SoftwareType,DateUTC
2013-07-27 00:01:00,59.3,56.1,29.97,NNW,336,0.0,0.0,89,0.00,,,0.00,WeatherDisplay:10.37,2013-07-27 04:01:00,
2013-07-27 00:02:00,59.2,56.3,29.97,NNW,336,0.0,0.0,90,0.00,,,0.00,WeatherDisplay:10.37,2013-07-27 04:02:00,
2013-07-27 00:07:00,59.0,56.1,29.97,NNW,336,0.0,0.0,90,0.00,,,0.00,WeatherDisplay:10.37,2013-07-27 04:07:00,
2013-07-27 00:09:00,59.0,56.1,29.97,NNW,336,0.0,0.0,90,0.00,,,0.00,WeatherDisplay:10.37,2013-07-27 04:09:00,
2013-07-27 00:14:00,59.0,56.1,29.97,NNW,336,0.0,0.0,90,0.00,,,0.00,WeatherDisplay:10.37,2013-07-27 04:14:00,
2013-07-27 00:19:00,59.0,56.4,29.97,NNW,336,0.0,0.0,91,0.00,,,0.00,WeatherDisplay:10.37,2013-07-27 04:19:00,
2013-07-27 00:25:00,59.0,56.4,29.97,NNW,336,0.0,0.0,91,0.00,,,0.00,WeatherDisplay:10.37,2013-07-27 04:25:00,
2013-07-27 00:30:00,59.0,56.4,29.97,NNW,336,0.0,0.0,91,0.00,,,0.00,WeatherDisplay:10.37,2013-07-27 04:30:00,
2013-07-27 00:35:00,59.0,56.4,29.97,NNW,336,0.0,0.0,91,0.00,,,0.00,WeatherDisplay:10.37,2013-07-27 04:35:00,
2013-07-27 00:40:00,58.9,56.3,29.97,NNW,336,0.0,0.0,91,0.00,,,0.00,WeatherDisplay:10.37,2013-07-27 04:40:00,
2013-07-27 00:45:00,58.8,56.2,29.97,NNW,336,0.0,0.0,91,0.00,,,0.00,WeatherDisplay:10.37,2013-07-27 04:45:00,
2013-07-27 00:50:00,58.6,56.0,29.97,NNW,336,0.0,0.0,91,0.00,,,0.00,WeatherDisplay:10.37,2013-07-27 04:50:00,
2013-07-27 00:56:00,58.5,55.9,29.97,NNW,336,0.0,0.0,91,0.00,,,0.00,WeatherDisplay:10.37,2013-07-27 04:56:00,
2013-07-27 01:01:00,58.4,56.1,29.97,NNW,336,0.0,0.0,92,0.00,,,0.00,WeatherDisplay:10.37,2013-07-27 05:01:00,
2013-07-27 01:06:00,58.2,55.9,29.96,NNW,336,0.0,0.0,92,0.00,,,0.00,WeatherDisplay:10.37,2013-07-27 05:06:00,
2013-07-27 01:12:00,58.1,55.8,29.96,NNW,336,0.0,0.0,92,0.00,,,0.00,WeatherDisplay:10.37,2013-07-27 05:12:00,
2013-07-27 01:17:00,58.0,55.7,29.96,NNW,336,0.0,0.0,92,0.00,,,0.00,WeatherDisplay:10.37,2013-07-27 05:17:00,
2013-07-27 01:22:00,57.9,55.6,29.96,NNW,336,0.0,0.0,92,0.00,,,0.00,WeatherDisplay:10.37,2013-07-27 05:22:00,
2013-07-27 01:27:00,57.9,55.9,29.96,NNW,336,0.0,0.0,93,0.00,,,0.00,WeatherDisplay:10.37,2013-07-27 05:27:00,
2013-07-27 01:32:00,57.8,55.8,29.95,NNW,336,0.0,0.0,93,0.00,,,0.00,WeatherDisplay:10.37,2013-07-27 05:32:00,
2013-07-27 01:37:00,57.8,55.8,29.95,NNW,336,0.0,0.0,93,0.00,,,0.00,WeatherDisplay:10.37,2013-07-27 05:37:00,
2013-07-27 01:42:00,57.8,55.8,29.95,NNW,336,0.0,0.0,93,0.00,,,0.00,WeatherDisplay:10.37,2013-07-27 05:42:00,
2013-07-27 01:47:00,57.7,55.7,29.95,NNW,336,0.0,0.0,93,0.00,,,0.00,WeatherDisplay:10.37,2013-07-27 05:47:00,
2013-07-27 01:53:00,57.6,55.6,29.95,NNW,336,0.0,0.0,93,0.00,,,0.00,WeatherDisplay:10.37,2013-07-27 05:53:00,
2013-07-27 01:58:00,57.4,55.4,29.94,NNW,336,0.0,0.0,93,0.00,,,0.00,WeatherDisplay:10.37,2013-07-27 05:58:00,
2013-07-27 02:03:00,57.3,55.3,29.94,NNW,336,0.0,0.0,93,0.00,CLR,,0.00,WeatherDisplay:10.37,2013-07-27 06:03:00,
2013-07-27 02:08:00,57.3,55.3,29.94,NNW,336,0.0,0.0,93,0.00,CLR,,0.00,WeatherDisplay:10.37,2013-07-27 06:08:00,
2013-07-27 02:13:00,57.2,55.2,29.94,NNW,336,0.0,0.0,93,0.00,CLR,,0.00,WeatherDisplay:10.37,2013-07-27 06:13:00,
2013-07-27 02:19:00,57.1,55.1,29.94,NNW,336,0.0,0.0,93,0.00,CLR,,0.00,WeatherDisplay:10.37,2013-07-27 06:19:00,
2013-07-27 02:24:00,57.0,55.3,29.94,NNW,336,0.0,0.0,94,0.00,CLR,,0.00,WeatherDisplay:10.37,2013-07-27 06:24:00,
2013-07-27 02:29:00,56.9,55.2,29.94,NNW,336,0.0,0.0,94,0.00,CLR,,0.00,WeatherDisplay:10.37,2013-07-27 06:29:00,
2013-07-27 02:34:00,56.8,55.1,29.93,NNW,336,0.0,0.0,94,0.00,CLR,,0.00,WeatherDisplay:10.37,2013-07-27 06:34:00,
2013-07-27 02:39:00,56.7,55.0,29.93,NNW,336,0.0,0.0,94,0.00,,,0.00,WeatherDisplay:10.37,2013-07-27 06:39:00,
2013-07-27 02:45:00,56.6,54.9,29.93,NNW,336,0.0,0.0,94,0.00,,,0.00,WeatherDisplay:10.37,2013-07-27 06:45:00,
2013-07-27 02:50:00,56.6,54.9,29.93,NNW,336,0.0,0.0,94,0.00,,,0.00,WeatherDisplay:10.37,2013-07-27 06:50:00,
2013-07-27 02:55:00,56.5,54.8,29.93,NNW,336,0.0,0.0,94,0.00,,,0.00,WeatherDisplay:10.37,2013-07-27 06:55:00,
2013-07-27 03:00:00,56.5,54.8,29.93,NNW,336,0.0,0.0,94,0.00,,,0.00,WeatherDisplay:10.37,2013-07-27 07:00:00,
2013-07-27 03:05:00,56.6,54.9,29.93,NNW,336,0.0,0.0,94,0.00,,,0.00,WeatherDisplay:10.37,2013-07-27 07:05:00,
2013-07-27 03:11:00,56.5,54.8,29.92,NNW,336,0.0,0.0,94,0.00,,,0.00,WeatherDisplay:10.37,2013-07-27 07:11:00,
2013-07-27 03:16:00,56.5,54.8,29.92,NNW,336,0.0,0.0,94,0.00,,,0.00,WeatherDisplay:10.37,2013-07-27 07:16:00,
2013-07-27 03:21:00,56.4,54.7,29.92,NNW,336,0.0,0.0,94,0.00,,,0.00,WeatherDisplay:10.37,2013-07-27 07:21:00,
2013-07-27 03:26:00,56.3,54.9,29.92,NNW,336,0.0,0.0,95,0.00,,,0.00,WeatherDisplay:10.37,2013-07-27 07:26:00,
2013-07-27 03:31:00,56.4,55.0,29.92,NNW,336,0.0,0.0,95,0.00,,,0.00,WeatherDisplay:10.37,2013-07-27 07:31:00,
2013-07-27 03:36:00,56.3,54.9,29.92,NNW,336,0.0,0.0,95,0.00,,,0.00,WeatherDisplay:10.37,2013-07-27 07:36:00,
2013-07-27 03:41:00,56.3,54.9,29.92,NNW,336,0.0,0.0,95,0.00,,,0.00,WeatherDisplay:10.37,2013-07-27 07:41:00,
2013-07-27 03:46:00,56.3,54.9,29.92,NNW,336,0.0,0.0,95,0.00,,,0.00,WeatherDisplay:10.37,2013-07-27 07:46:00,
2013-07-27 03:52:00,56.3,54.9,29.92,NNW,336,0.0,0.0,95,0.00,,,0.00,WeatherDisplay:10.37,2013-07-27 07:52:00,
2013-07-27 03:57:00,56.2,54.8,29.91,NNW,336,0.0,0.0,95,0.00,,,0.00,WeatherDisplay:10.37,2013-07-27 07:57:00,
2013-07-27 04:02:00,56.1,54.7,29.91,NNW,336,0.0,0.0,95,0.00,,,0.00,WeatherDisplay:10.37,2013-07-27 08:02:00,
2013-07-27 04:07:00,56.1,54.7,29.91,NNW,336,0.0,0.0,95,0.00,,,0.00,WeatherDisplay:10.37,2013-07-27 08:07:00,
2013-07-27 04:13:00,56.0,54.6,29.92,NNW,336,0.0,0.0,95,0.00,,,0.00,WeatherDisplay:10.37,2013-07-27 08:13:00,
2013-07-27 04:18:00,56.0,54.6,29.91,NNW,336,0.0,0.0,95,0.00,,,0.00,WeatherDisplay:10.37,2013-07-27 08:18:00,
2013-07-27 04:23:00,56.0,54.6,29.91,NNW,336,0.0,0.0,95,0.00,,,0.00,WeatherDisplay:10.37,2013-07-27 08:23:00,
2013-07-27 04:28:00,56.1,54.7,29.91,NNW,336,0.0,0.0,95,0.00,,,0.00,WeatherDisplay:10.37,2013-07-27 08:28:00,
2013-07-27 04:33:00,56.1,54.7,29.91,NNW,336,0.0,0.0,95,0.00,,,0.00,WeatherDisplay:10.37,2013-07-27 08:33:00,
2013-07-27 04:38:00,56.0,54.6,29.91,NNW,336,0.0,0.0,95,0.00,,,0.00,WeatherDisplay:10.37,2013-07-27 08:38:00,
2013-07-27 04:43:00,55.9,54.5,29.91,NNW,336,0.0,0.0,95,0.00,,,0.00,WeatherDisplay:10.37,2013-07-27 08:43:00,
2013-07-27 04:49:00,55.9,54.5,29.91,NNW,336,0.0,0.0,95,0.00,,,0.00,WeatherDisplay:10.37,2013-07-27 08:49:00,
2013-07-27 04:54:00,55.9,54.5,29.91,NNW,336,0.0,0.0,95,0.00,,,0.00,WeatherDisplay:10.37,2013-07-27 08:54:00,
2013-07-27 04:59:00,55.8,54.4,29.91,NNW,336,0.0,0.0,95,0.00,,,0.00,WeatherDisplay:10.37,2013-07-27 08:59:00,
2013-07-27 05:04:00,55.7,54.3,29.91,NNW,336,0.0,0.0,95,0.00,,,0.00,WeatherDisplay:10.37,2013-07-27 09:04:00,
2013-07-27 05:09:00,55.7,54.3,29.91,NNW,336,0.0,0.0,95,0.00,,,0.00,WeatherDisplay:10.37,2013-07-27 09:09:00,
2013-07-27 05:14:00,55.7,54.3,29.91,NNW,336,0.0,0.0,95,0.00,,,0.00,WeatherDisplay:10.37,2013-07-27 09:14:00,
2013-07-27 05:19:00,55.7,54.3,29.91,NNW,336,0.0,0.0,95,0.00,,,0.00,WeatherDisplay:10.37,2013-07-27 09:19:00,
2013-07-27 05:25:00,55.7,54.3,29.91,NNW,336,0.0,0.0,95,0.00,,,0.00,WeatherDisplay:10.37,2013-07-27 09:25:00,
2013-07-27 05:30:00,55.6,54.2,29.91,NNW,336,0.0,0.0,95,0.00,,,0.00,WeatherDisplay:10.37,2013-07-27 09:30:00,
2013-07-27 05:35:00,55.7,54.3,29.91,NNW,336,0.0,0.0,95,0.00,,,0.00,WeatherDisplay:10.37,2013-07-27 09:35:00,
2013-07-27 05:40:00,55.7,54.3,29.91,NNW,336,0.0,0.0,95,0.00,CLR,,0.00,WeatherDisplay:10.37,2013-07-27 09:40:00,
2013-07-27 05:45:00,55.6,54.2,29.91,NNW,336,0.0,0.0,95,0.00,CLR,,0.00,WeatherDisplay:10.37,2013-07-27 09:45:00,
2013-07-27 05:50:00,55.6,54.2,29.91,NNW,336,0.0,0.0,95,0.00,CLR,,0.00,WeatherDisplay:10.37,2013-07-27 09:50:00,
2013-07-27 05:55:00,55.6,54.2,29.91,NNW,336,0.0,0.0,95,0.00,CLR,,0.00,WeatherDisplay:10.37,2013-07-27 09:55:00,
2013-07-27 06:01:00,55.6,54.2,29.91,NNW,336,0.0,0.0,95,0.00,CLR,,0.00,WeatherDisplay:10.37,2013-07-27 10:01:00,
2013-07-27 06:06:00,55.6,54.5,29.91,NNW,336,0.0,0.0,96,0.00,CLR,,0.00,WeatherDisplay:10.37,2013-07-27 10:06:00,
2013-07-27 06:11:00,55.6,54.5,29.91,NNW,336,0.0,0.0,96,0.00,CLR,,0.00,WeatherDisplay:10.37,2013-07-27 10:11:00,
2013-07-27 06:16:00,55.7,54.6,29.91,NNW,336,0.0,0.0,96,0.00,CLR,,0.00,WeatherDisplay:10.37,2013-07-27 10:16:00,
2013-07-27 06:21:00,55.8,54.7,29.91,NNW,336,0.0,0.0,96,0.00,CLR,,0.00,WeatherDisplay:10.37,2013-07-27 10:21:00,
2013-07-27 06:26:00,55.9,54.8,29.91,NNW,336,0.0,0.0,96,0.00,CLR,,0.00,WeatherDisplay:10.37,2013-07-27 10:26:00,
2013-07-27 06:31:00,56.0,54.9,29.91,NNW,336,0.0,0.0,96,0.00,CLR,,0.00,WeatherDisplay:10.37,2013-07-27 10:31:00,
2013-07-27 06:37:00,56.1,55.0,29.91,NNW,336,0.0,0.0,96,0.00,CLR,,0.00,WeatherDisplay:10.37,2013-07-27 10:37:00,
2013-07-27 06:42:00,56.3,55.2,29.91,NNW,336,0.0,0.0,96,0.00,CLR,,0.00,WeatherDisplay:10.37,2013-07-27 10:42:00,
2013-07-27 06:47:00,56.4,55.3,29.91,NNW,336,0.0,0.0,96,0.00,CLR,,0.00,WeatherDisplay:10.37,2013-07-27 10:47:00,
2013-07-27 06:52:00,56.5,55.4,29.91,NNW,336,0.0,0.0,96,0.00,CLR,,0.00,WeatherDisplay:10.37,2013-07-27 10:52:00,
2013-07-27 06:58:00,56.7,55.6,29.91,NNW,336,0.0,0.0,96,0.00,CLR,,0.00,WeatherDisplay:10.37,2013-07-27 10:58:00,
2013-07-27 07:03:00,56.8,55.7,29.91,NNW,336,0.0,0.0,96,0.00,CLR,,0.00,WeatherDisplay:10.37,2013-07-27 11:03:00,
2013-07-27 07:08:00,57.0,56.2,29.91,NNW,336,0.0,0.0,97,0.00,CLR,,0.00,WeatherDisplay:10.37,2013-07-27 11:08:00,
2013-07-27 07:13:00,57.3,56.2,29.92,NNW,336,0.0,0.0,96,0.00,CLR,,0.00,WeatherDisplay:10.37,2013-07-27 11:13:00,
2013-07-27 07:18:00,57.6,56.8,29.92,NNW,336,0.0,0.0,97,0.00,CLR,,0.00,WeatherDisplay:10.37,2013-07-27 11:18:00,
2013-07-27 07:24:00,57.9,57.1,29.92,NNW,336,0.0,0.0,97,0.00,CLR,,0.00,WeatherDisplay:10.37,2013-07-27 11:24:00,
2013-07-27 07:29:00,58.2,57.4,29.92,NNW,336,0.0,0.0,97,0.00,CLR,,0.00,WeatherDisplay:10.37,2013-07-27 11:29:00,
2013-07-27 07:34:00,58.6,57.8,29.92,NNW,336,0.0,0.0,97,0.00,CLR,,0.00,WeatherDisplay:10.37,2013-07-27 11:34:00,
2013-07-27 07:39:00,59.0,58.2,29.92,NNW,336,0.0,0.0,97,0.00,CLR,,0.00,WeatherDisplay:10.37,2013-07-27 11:39:00,
2013-07-27 07:44:00,59.2,58.3,29.92,NNW,336,0.0,0.0,97,0.00,CLR,,0.00,WeatherDisplay:10.37,2013-07-27 11:44:00,
2013-07-27 07:50:00,59.7,58.8,29.92,NNW,336,0.0,0.0,97,0.00,CLR,,0.00,WeatherDisplay:10.37,2013-07-27 11:50:00,
2013-07-27 07:55:00,60.0,59.1,29.92,NNW,336,0.0,0.0,97,0.00,CLR,,0.00,WeatherDisplay:10.37,2013-07-27 11:55:00,
2013-07-27 08:00:00,60.4,59.5,29.92,NNW,336,0.0,0.0,97,0.00,CLR,,0.00,WeatherDisplay:10.37,2013-07-27 12:00:00,
2013-07-27 08:05:00,60.7,59.8,29.92,NNW,336,0.0,0.0,97,0.00,CLR,,0.00,WeatherDisplay:10.37,2013-07-27 12:05:00,
2013-07-27 08:10:00,61.1,60.2,29.91,NNW,336,0.0,0.0,97,0.00,CLR,,0.00,WeatherDisplay:10.37,2013-07-27 12:10:00,
2013-07-27 08:15:00,61.3,60.4,29.92,NNW,336,0.0,0.0,97,0.00,CLR,,0.00,WeatherDisplay:10.37,2013-07-27 12:15:00,
2013-07-27 08:20:00,61.6,60.7,29.92,NNW,336,0.0,0.0,97,0.00,CLR,,0.00,WeatherDisplay:10.37,2013-07-27 12:20:00,
2013-07-27 08:25:00,61.7,60.5,29.92,NNW,336,0.0,0.0,96,0.00,CLR,,0.00,WeatherDisplay:10.37,2013-07-27 12:25:00,
2013-07-27 08:31:00,61.9,60.7,29.92,NNW,336,0.0,0.0,96,0.00,CLR,,0.00,WeatherDisplay:10.37,2013-07-27 12:31:00,
2013-07-27 08:36:00,62.0,60.8,29.92,NNW,336,0.0,0.0,96,0.00,CLR,,0.00,WeatherDisplay:10.37,2013-07-27 12:36:00,
2013-07-27 08:41:00,62.2,61.0,29.92,NNW,336,0.0,0.0,96,0.00,CLR,,0.00,WeatherDisplay:10.37,2013-07-27 12:41:00,
2013-07-27 08:46:00,62.5,61.3,29.92,NNW,336,0.0,0.0,96,0.00,CLR,,0.00,WeatherDisplay:10.37,2013-07-27 12:46:00,
2013-07-27 08:51:00,62.7,61.2,29.92,NNW,336,0.0,0.0,95,0.00,CLR,,0.00,WeatherDisplay:10.37,2013-07-27 12:51:00,
2013-07-27 08:56:00,62.9,61.4,29.91,NNW,336,0.0,0.0,95,0.00,CLR,,0.00,WeatherDisplay:10.37,2013-07-27 12:56:00,
2013-07-27 09:02:00,63.2,61.7,29.91,NNW,336,0.0,0.0,95,0.00,CLR,,0.00,WeatherDisplay:10.37,2013-07-27 13:02:00,
2013-07-27 09:07:00,63.5,62.0,29.91,NNW,336,0.0,0.0,95,0.00,CLR,,0.00,WeatherDisplay:10.37,2013-07-27 13:07:00,
2013-07-27 09:12:00,63.8,62.0,29.91,NNW,336,0.0,0.0,94,0.00,CLR,,0.00,WeatherDisplay:10.37,2013-07-27 13:12:00,
2013-07-27 09:17:00,64.3,62.5,29.91,NNW,336,0.0,0.0,94,0.00,CLR,,0.00,WeatherDisplay:10.37,2013-07-27 13:17:00,
2013-07-27 09:22:00,64.7,62.9,29.91,NNW,336,0.0,0.0,94,0.00,CLR,,0.00,WeatherDisplay:10.37,2013-07-27 13:22:00,
2013-07-27 09:27:00,65.2,63.1,29.91,NNW,336,0.0,0.0,93,0.00,CLR,,0.00,WeatherDisplay:10.37,2013-07-27 13:27:00,
2013-07-27 09:33:00,65.8,63.7,29.90,NNW,336,0.0,0.0,93,0.00,CLR,,0.00,WeatherDisplay:10.37,2013-07-27 13:33:00,
2013-07-27 09:38:00,66.4,64.0,29.90,NNW,336,0.0,0.0,92,0.00,CLR,,0.00,WeatherDisplay:10.37,2013-07-27 13:38:00,
2013-07-27 09:43:00,67.3,64.3,29.91,NNW,336,0.0,0.0,90,0.00,CLR,,0.00,WeatherDisplay:10.37,2013-07-27 13:43:00,
2013-07-27 09:48:00,68.1,64.4,29.91,NNW,336,0.0,0.0,88,0.00,CLR,,0.00,WeatherDisplay:10.37,2013-07-27 13:48:00,
2013-07-27 09:53:00,68.7,64.3,29.90,NNW,336,0.0,0.0,86,0.00,CLR,,0.00,WeatherDisplay:10.37,2013-07-27 13:53:00,
2013-07-27 09:58:00,69.3,64.9,29.90,NNE,15,0.0,0.0,86,0.00,CLR,,0.00,WeatherDisplay:10.37,2013-07-27 13:58:00,
2013-07-27 10:03:00,69.9,64.5,29.90,NNE,15,0.0,0.0,83,0.00,CLR,,0.00,WeatherDisplay:10.37,2013-07-27 14:03:00,
2013-07-27 10:08:00,70.6,65.9,29.90,NNE,14,0.0,0.0,85,0.00,CLR,,0.00,WeatherDisplay:10.37,2013-07-27 14:08:00,
2013-07-27 10:14:00,71.1,65.3,29.90,North,351,0.0,0.0,82,0.00,CLR,,0.00,WeatherDisplay:10.37,2013-07-27 14:14:00,
2013-07-27 10:19:00,71.7,65.2,29.90,West,263,0.0,0.0,80,0.00,CLR,,0.00,WeatherDisplay:10.37,2013-07-27 14:19:00,
2013-07-27 10:24:00,72.4,66.2,29.90,West,263,0.0,0.0,81,0.00,CLR,,0.00,WeatherDisplay:10.37,2013-07-27 14:24:00,
2013-07-27 10:29:00,72.9,65.6,29.90,WSW,240,0.2,1.1,78,0.00,CLR,,0.00,WeatherDisplay:10.37,2013-07-27 14:29:00,
2013-07-27 10:34:00,73.4,65.0,29.90,South,171,1.0,3.5,75,0.00,CLR,,0.00,WeatherDisplay:10.37,2013-07-27 14:34:00,
2013-07-27 10:40:00,73.9,64.7,29.90,SW,216,0.0,1.0,73,0.00,CLR,,0.00,WeatherDisplay:10.37,2013-07-27 14:40:00,
2013-07-27 10:45:00,74.4,65.6,29.90,SSW,199,1.6,1.6,74,0.00,CLR,,0.00,WeatherDisplay:10.37,2013-07-27 14:45:00,
2013-07-27 10:50:00,74.8,64.8,29.89,South,169,0.6,2.3,71,0.00,CLR,,0.00,WeatherDisplay:10.37,2013-07-27 14:50:00,
2013-07-27 10:55:00,75.1,64.2,29.89,WNW,286,0.5,1.1,69,0.00,CLR,,0.00,WeatherDisplay:10.37,2013-07-27 14:55:00,
2013-07-27 11:00:00,75.3,64.4,29.89,South,173,0.8,1.1,69,0.00,CLR,,0.00,WeatherDisplay:10.37,2013-07-27 15:00:00,
2013-07-27 11:05:00,75.5,64.6,29.89,SW,226,0.5,1.1,69,0.00,CLR,,0.00,WeatherDisplay:10.37,2013-07-27 15:05:00,
2013-07-27 11:10:00,75.6,64.7,29.89,SSW,198,0.3,1.1,69,0.00,CLR,,0.00,WeatherDisplay:10.37,2013-07-27 15:10:00,
2013-07-27 11:15:00,75.9,65.4,29.89,South,187,0.2,2.3,70,0.00,CLR,,0.00,WeatherDisplay:10.37,2013-07-27 15:15:00,
2013-07-27 11:20:00,76.2,64.4,29.88,SSW,213,0.3,1.0,67,0.00,CLR,,0.00,WeatherDisplay:10.37,2013-07-27 15:20:00,
2013-07-27 11:25:00,76.7,64.9,29.88,South,178,0.6,1.1,67,0.00,CLR,,0.00,WeatherDisplay:10.37,2013-07-27 15:25:00,
2013-07-27 11:31:00,77.2,65.4,29.88,South,177,0.1,1.1,67,0.00,CLR,,0.00,WeatherDisplay:10.37,2013-07-27 15:31:00,
2013-07-27 11:36:00,77.6,66.6,29.89,East,97,0.8,2.0,69,0.00,CLR,,0.00,WeatherDisplay:10.37,2013-07-27 15:36:00,
2013-07-27 11:41:00,77.7,65.4,29.89,SSW,212,0.4,2.3,66,0.00,CLR,,0.00,WeatherDisplay:10.37,2013-07-27 15:41:00,
2013-07-27 11:47:00,77.8,65.5,29.89,South,179,0.3,1.1,66,0.00,CLR,,0.00,WeatherDisplay:10.37,2013-07-27 15:47:00,
2013-07-27 11:52:00,78.0,66.2,29.89,South,179,0.1,0.0,67,0.00,CLR,,0.00,WeatherDisplay:10.37,2013-07-27 15:52:00,
2013-07-27 11:57:00,78.0,66.2,29.89,South,177,0.0,0.0,67,0.00,CLR,,0.00,WeatherDisplay:10.37,2013-07-27 15:57:00,
2013-07-27 12:02:00,77.8,66.0,29.89,South,176,0.1,1.1,67,0.00,CLR,,0.00,WeatherDisplay:10.37,2013-07-27 16:02:00,
2013-07-27 12:07:00,77.8,66.4,29.88,South,177,0.1,1.1,68,0.00,CLR,,0.00,WeatherDisplay:10.37,2013-07-27 16:07:00,
2013-07-27 12:12:00,77.9,66.5,29.88,South,177,0.0,0.0,68,0.00,CLR,,0.00,WeatherDisplay:10.37,2013-07-27 16:12:00,
2013-07-27 12:17:00,78.3,66.4,29.88,South,177,0.1,1.1,67,0.00,CLR,,0.00,WeatherDisplay:10.37,2013-07-27 16:17:00,
2013-07-27 12:22:00,78.7,66.4,29.88,South,171,0.1,0.0,66,0.00,CLR,,0.00,WeatherDisplay:10.37,2013-07-27 16:22:00,
2013-07-27 12:27:00,78.8,65.1,29.88,South,169,0.7,2.3,63,0.00,CLR,,0.00,WeatherDisplay:10.37,2013-07-27 16:27:00,
2013-07-27 12:33:00,78.9,65.2,29.88,SSE,159,0.2,1.1,63,0.00,CLR,,0.00,WeatherDisplay:10.37,2013-07-27 16:33:00,
2013-07-27 12:38:00,79.0,66.2,29.88,SSE,160,0.1,0.0,65,0.00,CLR,,0.00,WeatherDisplay:10.37,2013-07-27 16:38:00,
2013-07-27 12:43:00,79.0,66.7,29.87,SSE,160,0.3,1.1,66,0.00,CLR,,0.00,WeatherDisplay:10.37,2013-07-27 16:43:00,
2013-07-27 12:48:00,79.0,66.7,29.87,SSE,160,0.0,0.0,66,0.00,CLR,,0.00,WeatherDisplay:10.37,2013-07-27 16:48:00,
2013-07-27 12:53:00,79.0,66.7,29.87,SSE,160,0.1,1.1,66,0.00,CLR,,0.00,WeatherDisplay:10.37,2013-07-27 16:53:00,
2013-07-27 12:58:00,79.3,66.5,29.87,ENE,76,0.0,0.0,65,0.00,CLR,,0.00,WeatherDisplay:10.37,2013-07-27 16:58:00,
2013-07-27 13:04:00,79.6,66.8,29.87,SSE,166,0.8,3.0,65,0.00,CLR,,0.00,WeatherDisplay:10.37,2013-07-27 17:04:00,
2013-07-27 13:09:00,79.9,65.7,29.87,SSE,165,0.3,2.3,62,0.00,CLR,,0.00,WeatherDisplay:10.37,2013-07-27 17:09:00,
2013-07-27 13:14:00,80.0,66.7,29.87,SSE,165,0.0,1.1,64,0.00,CLR,,0.00,WeatherDisplay:10.37,2013-07-27 17:14:00,
2013-07-27 13:19:00,79.8,66.5,29.86,SSE,165,0.3,1.1,64,0.00,CLR,,0.00,WeatherDisplay:10.37,2013-07-27 17:19:00,
2013-07-27 13:24:00,79.5,65.8,29.86,SSE,148,0.0,0.0,63,0.00,CLR,,0.00,WeatherDisplay:10.37,2013-07-27 17:24:00,
2013-07-27 13:30:00,79.4,66.6,29.86,SSE,148,0.1,1.1,65,0.00,CLR,,0.00,WeatherDisplay:10.37,2013-07-27 17:30:00,
2013-07-27 13:35:00,79.3,67.0,29.86,SSE,148,0.0,0.0,66,0.00,CLR,,0.00,WeatherDisplay:10.37,2013-07-27 17:35:00,
2013-07-27 13:40:00,79.1,65.4,29.86,SSE,157,0.6,2.3,63,0.00,CLR,,0.00,WeatherDisplay:10.37,2013-07-27 17:40:00,
2013-07-27 13:45:00,79.1,65.4,29.86,SSE,157,0.0,0.0,63,0.00,CLR,,0.00,WeatherDisplay:10.37,2013-07-27 17:45:00,
2013-07-27 13:50:00,79.2,65.5,29.86,SSE,157,0.0,0.0,63,0.00,CLR,,0.00,WeatherDisplay:10.37,2013-07-27 17:50:00,
2013-07-27 13:55:00,79.3,66.1,29.86,SSE,159,0.2,1.1,64,0.00,CLR,,0.00,WeatherDisplay:10.37,2013-07-27 17:55:00,
2013-07-27 14:00:00,79.4,65.2,29.86,SW,223,0.8,3.5,62,0.00,CLR,,0.00,WeatherDisplay:10.37,2013-07-27 18:00:00,
2013-07-27 14:06:00,79.1,65.4,29.86,WSW,242,1.5,2.3,63,0.00,CLR,,0.00,WeatherDisplay:10.37,2013-07-27 18:06:00,
2013-07-27 14:11:00,78.9,66.1,29.86,WSW,248,0.5,1.1,65,0.00,CLR,,0.00,WeatherDisplay:10.37,2013-07-27 18:11:00,
2013-07-27 14:16:00,79.1,66.3,29.85,WSW,248,0.0,0.0,65,0.00,CLR,,0.00,WeatherDisplay:10.37,2013-07-27 18:16:00,
2013-07-27 14:21:00,79.3,67.4,29.86,WSW,248,0.0,0.0,67,0.00,CLR,,0.00,WeatherDisplay:10.37,2013-07-27 18:21:00,
2013-07-27 14:27:00,79.3,67.0,29.86,SSE,147,0.1,1.1,66,0.00,CLR,,0.00,WeatherDisplay:10.37,2013-07-27 18:27:00,
2013-07-27 14:32:00,79.4,68.3,29.86,SSW,199,0.0,0.0,69,0.00,CLR,,0.00,WeatherDisplay:10.37,2013-07-27 18:32:00,
2013-07-27 14:37:00,79.4,67.0,29.86,SSW,199,0.0,0.0,66,0.00,CLR,,0.00,WeatherDisplay:10.37,2013-07-27 18:37:00,
2013-07-27 14:43:00,79.4,67.0,29.85,SSW,199,0.0,0.0,66,0.00,,,0.00,WeatherDisplay:10.37,2013-07-27 18:43:00,
2013-07-27 14:48:00,79.5,66.7,29.85,South,187,0.0,0.0,65,0.00,,,0.00,WeatherDisplay:10.37,2013-07-27 18:48:00,
2013-07-27 14:53:00,79.5,68.9,29.85,South,187,0.0,0.0,70,0.00,,,0.00,WeatherDisplay:10.37,2013-07-27 18:53:00,
2013-07-27 14:58:00,79.1,67.6,29.85,South,187,0.0,1.1,68,0.00,,,0.00,WeatherDisplay:10.37,2013-07-27 18:58:00,
2013-07-27 15:03:00,78.7,66.8,29.85,South,187,0.0,0.0,67,0.00,,,0.00,WeatherDisplay:10.37,2013-07-27 19:03:00,
2013-07-27 15:08:00,78.7,68.1,29.85,South,187,0.0,0.0,70,0.00,,,0.00,WeatherDisplay:10.37,2013-07-27 19:08:00,
2013-07-27 15:13:00,78.3,68.5,29.85,South,187,0.0,0.0,72,0.00,,,0.00,WeatherDisplay:10.37,2013-07-27 19:13:00,
2013-07-27 15:19:00,77.8,68.0,29.85,South,187,0.0,0.0,72,0.00,,,0.00,WeatherDisplay:10.37,2013-07-27 19:19:00,
2013-07-27 15:24:00,77.1,67.4,29.84,South,187,0.0,0.0,72,0.00,,,0.00,WeatherDisplay:10.37,2013-07-27 19:24:00,
2013-07-27 15:29:00,76.7,68.2,29.85,South,187,0.0,0.0,75,0.00,,,0.00,WeatherDisplay:10.37,2013-07-27 19:29:00,
2013-07-27 15:34:00,76.6,68.5,29.85,South,187,0.0,0.0,76,0.00,,,0.00,WeatherDisplay:10.37,2013-07-27 19:34:00,
2013-07-27 15:39:00,76.6,68.8,29.85,SW,232,0.0,0.0,77,0.00,,,0.00,WeatherDisplay:10.37,2013-07-27 19:39:00,
2013-07-27 15:45:00,76.7,67.4,29.84,SW,232,0.0,0.0,73,0.00,,,0.00,WeatherDisplay:10.37,2013-07-27 19:45:00,
2013-07-27 15:50:00,77.0,67.7,29.84,SW,232,0.0,0.0,73,0.00,,,0.00,WeatherDisplay:10.37,2013-07-27 19:50:00,
2013-07-27 15:55:00,77.5,67.8,29.84,SW,232,0.0,1.1,72,0.00,,,0.00,WeatherDisplay:10.37,2013-07-27 19:55:00,
2013-07-27 16:00:00,77.9,69.3,29.84,SW,232,0.0,0.0,75,0.00,,,0.00,WeatherDisplay:10.37,2013-07-27 20:00:00,
2013-07-27 16:05:00,77.9,68.9,29.84,SW,229,0.2,0.0,74,0.00,,,0.00,WeatherDisplay:10.37,2013-07-27 20:05:00,
2013-07-27 16:11:00,77.7,68.4,29.84,SW,229,0.0,0.0,73,0.00,,,0.00,WeatherDisplay:10.37,2013-07-27 20:11:00,
2013-07-27 16:16:00,77.6,68.3,29.83,SW,229,0.0,1.1,73,0.00,,,0.00,WeatherDisplay:10.37,2013-07-27 20:16:00,
2013-07-27 16:21:00,77.6,69.0,29.83,SW,229,0.0,0.0,75,0.00,,,0.00,WeatherDisplay:10.37,2013-07-27 20:21:00,
2013-07-27 16:27:00,77.5,68.2,29.83,SW,229,0.0,0.0,73,0.00,,,0.00,WeatherDisplay:10.37,2013-07-27 20:27:00,
2013-07-27 16:32:00,77.4,68.1,29.83,SW,229,0.0,0.0,73,0.00,,,0.00,WeatherDisplay:10.37,2013-07-27 20:32:00,
2013-07-27 16:37:00,77.3,68.0,29.83,SW,226,0.0,1.1,73,0.00,,,0.00,WeatherDisplay:10.37,2013-07-27 20:37:00,
2013-07-27 16:42:00,77.3,68.4,29.83,South,191,0.0,1.1,74,0.00,,,0.00,WeatherDisplay:10.37,2013-07-27 20:42:00,
2013-07-27 16:48:00,77.1,67.4,29.82,SSW,192,0.3,1.1,72,0.00,,,0.00,WeatherDisplay:10.37,2013-07-27 20:48:00,
2013-07-27 16:53:00,76.8,67.1,29.82,South,191,0.5,2.3,72,0.00,,,0.00,WeatherDisplay:10.37,2013-07-27 20:53:00,
2013-07-27 16:58:00,76.6,66.9,29.82,WSW,242,0.9,2.3,72,0.00,,,0.00,WeatherDisplay:10.37,2013-07-27 20:58:00,
2013-07-27 17:03:00,76.3,66.6,29.82,South,172,0.2,1.1,72,0.00,,,0.00,WeatherDisplay:10.37,2013-07-27 21:03:00,
2013-07-27 17:08:00,76.0,66.7,29.82,SSE,166,0.9,3.5,73,0.00,,,0.00,WeatherDisplay:10.37,2013-07-27 21:08:00,
2013-07-27 17:14:00,75.8,66.1,29.82,South,171,0.4,3.5,72,0.00,,,0.00,WeatherDisplay:10.37,2013-07-27 21:14:00,
2013-07-27 17:19:00,75.6,66.7,29.82,North,351,0.7,2.3,74,0.00,,,0.00,WeatherDisplay:10.37,2013-07-27 21:19:00,
2013-07-27 17:24:00,75.3,66.0,29.81,SE,144,0.6,3.5,73,0.00,,,0.00,WeatherDisplay:10.37,2013-07-27 21:24:00,
2013-07-27 17:30:00,75.1,66.2,29.81,SSE,155,0.2,1.1,74,0.00,,,0.00,WeatherDisplay:10.37,2013-07-27 21:30:00,
2013-07-27 17:35:00,75.1,65.9,29.82,SSE,163,0.7,2.3,73,0.00,,,0.00,WeatherDisplay:10.37,2013-07-27 21:35:00,
2013-07-27 17:40:00,75.2,66.3,29.81,SSE,164,0.2,1.1,74,0.00,,,0.00,WeatherDisplay:10.37,2013-07-27 21:40:00,
2013-07-27 17:45:00,75.2,65.9,29.81,South,183,0.3,2.3,73,0.00,,,0.00,WeatherDisplay:10.37,2013-07-27 21:45:00,
2013-07-27 17:50:00,75.1,66.2,29.81,South,182,0.0,0.0,74,0.00,,,0.00,WeatherDisplay:10.37,2013-07-27 21:50:00,
2013-07-27 17:55:00,74.9,66.1,29.81,SW,224,0.2,3.5,74,0.00,,,0.00,WeatherDisplay:10.37,2013-07-27 21:55:00,
2013-07-27 18:01:00,74.9,66.1,29.81,SW,224,0.0,0.0,74,0.00,,,0.00,WeatherDisplay:10.37,2013-07-27 22:01:00,
2013-07-27 18:06:00,74.9,66.1,29.81,SW,224,0.0,0.0,74,0.00,,,0.00,WeatherDisplay:10.37,2013-07-27 22:06:00,
2013-07-27 18:12:00,75.0,66.5,29.81,SW,226,0.0,0.0,75,0.00,,,0.00,WeatherDisplay:10.37,2013-07-27 22:12:00,
2013-07-27 18:17:00,75.0,66.5,29.81,SW,226,0.0,1.1,75,0.00,,,0.00,WeatherDisplay:10.37,2013-07-27 22:17:00,
2013-07-27 18:22:00,74.9,66.4,29.81,SW,226,0.0,0.0,75,0.00,,,0.00,WeatherDisplay:10.37,2013-07-27 22:22:00,
2013-07-27 18:27:00,74.9,66.1,29.81,SW,225,0.0,0.0,74,0.00,,,0.00,WeatherDisplay:10.37,2013-07-27 22:27:00,
2013-07-27 18:32:00,74.8,66.3,29.81,SW,225,0.0,0.0,75,0.00,,,0.00,WeatherDisplay:10.37,2013-07-27 22:32:00,
2013-07-27 18:37:00,74.7,66.2,29.81,SW,221,0.1,1.1,75,0.00,,,0.00,WeatherDisplay:10.37,2013-07-27 22:37:00,
2013-07-27 18:42:00,74.5,66.8,29.82,SW,221,0.0,0.0,77,0.00,,,0.00,WeatherDisplay:10.37,2013-07-27 22:42:00,
2013-07-27 18:47:00,74.4,67.1,29.82,SW,221,0.0,0.0,78,0.00,,,0.00,WeatherDisplay:10.37,2013-07-27 22:47:00,
2013-07-27 18:53:00,74.2,67.3,29.82,SW,221,0.0,0.0,79,0.00,,,0.00,WeatherDisplay:10.37,2013-07-27 22:53:00,
2013-07-27 18:58:00,73.8,67.2,29.82,SW,221,0.0,0.0,80,0.00,,,0.00,WeatherDisplay:10.37,2013-07-27 22:58:00,
2013-07-27 19:03:00,73.5,67.3,29.82,SW,221,0.0,0.0,81,0.00,,,0.00,WeatherDisplay:10.37,2013-07-27 23:03:00,
2013-07-27 19:08:00,72.9,67.1,29.82,SW,221,0.0,0.0,82,0.00,,,0.00,WeatherDisplay:10.37,2013-07-27 23:08:00,
2013-07-27 19:13:00,72.3,67.2,29.82,SW,221,0.0,0.0,84,0.00,,,0.00,WeatherDisplay:10.37,2013-07-27 23:13:00,
2013-07-27 19:18:00,71.7,66.9,29.81,SW,221,0.0,0.0,85,0.00,,,0.00,WeatherDisplay:10.37,2013-07-27 23:18:00,
2013-07-27 19:23:00,71.3,67.2,29.81,SW,221,0.0,0.0,87,0.00,,,0.00,WeatherDisplay:10.37,2013-07-27 23:23:00,
2013-07-27 19:28:00,71.1,67.4,29.81,SW,221,0.0,0.0,88,0.00,,,0.00,WeatherDisplay:10.37,2013-07-27 23:28:00,
2013-07-27 19:33:00,71.0,67.6,29.81,SW,221,0.0,0.0,89,0.00,,,0.00,WeatherDisplay:10.37,2013-07-27 23:33:00,
2013-07-27 19:38:00,70.9,67.5,29.81,SW,221,0.0,0.0,89,0.00,,,0.00,WeatherDisplay:10.37,2013-07-27 23:38:00,
2013-07-27 19:44:00,70.7,67.6,29.81,SW,221,0.0,0.0,90,0.00,,,0.00,WeatherDisplay:10.37,2013-07-27 23:44:00,
2013-07-27 19:49:00,70.6,67.8,29.82,SW,221,0.0,0.0,91,0.00,,,0.00,WeatherDisplay:10.37,2013-07-27 23:49:00,
2013-07-27 19:54:00,70.4,67.6,29.82,SW,221,0.0,0.0,91,0.00,,,0.00,WeatherDisplay:10.37,2013-07-27 23:54:00,
2013-07-27 19:59:00,70.3,67.5,29.83,SW,221,0.0,0.0,91,0.00,,,0.00,WeatherDisplay:10.37,2013-07-27 23:59:00,
2013-07-27 20:04:00,70.2,67.4,29.83,SW,221,0.0,0.0,91,0.00,,,0.00,WeatherDisplay:10.37,2013-07-28 00:04:00,
2013-07-27 20:09:00,70.2,67.8,29.84,SW,221,0.0,0.0,92,0.02,RA,,0.02,WeatherDisplay:10.37,2013-07-28 00:09:00,
2013-07-27 20:14:00,70.1,68.0,29.83,SW,221,0.0,0.0,93,0.03,RA,,0.03,WeatherDisplay:10.37,2013-07-28 00:14:00,
2013-07-27 20:20:00,69.9,67.8,29.83,SW,221,0.0,0.0,93,0.04,RA,,0.04,WeatherDisplay:10.37,2013-07-28 00:20:00,
2013-07-27 20:25:00,69.8,67.7,29.83,SW,221,0.0,0.0,93,0.04,RA,,0.04,WeatherDisplay:10.37,2013-07-28 00:25:00,
2013-07-27 20:30:00,69.8,68.0,29.82,SW,221,0.0,0.0,94,0.05,RA,,0.05,WeatherDisplay:10.37,2013-07-28 00:30:00,
2013-07-27 20:35:00,69.7,67.9,29.83,SW,221,0.0,0.0,94,0.05,RA,,0.05,WeatherDisplay:10.37,2013-07-28 00:35:00,
2013-07-27 20:40:00,69.5,67.7,29.82,SW,221,0.0,0.0,94,0.07,RA,,0.07,WeatherDisplay:10.37,2013-07-28 00:40:00,
2013-07-27 20:45:00,69.4,67.6,29.82,SW,221,0.0,0.0,94,0.07,RA,,0.07,WeatherDisplay:10.37,2013-07-28 00:45:00,
2013-07-27 20:51:00,69.2,67.4,29.82,SW,221,0.0,0.0,94,0.08,RA,,0.08,WeatherDisplay:10.37,2013-07-28 00:51:00,
2013-07-27 20:56:00,69.1,67.3,29.82,SW,221,0.0,0.0,94,0.08,RA,,0.09,WeatherDisplay:10.37,2013-07-28 00:56:00,
2013-07-27 21:01:00,68.9,67.4,29.82,SW,221,0.0,0.0,95,0.09,RA,,0.09,WeatherDisplay:10.37,2013-07-28 01:01:00,
2013-07-27 21:06:00,68.7,67.2,29.82,SW,221,0.0,0.0,95,0.09,RA,,0.10,WeatherDisplay:10.37,2013-07-28 01:06:00,
2013-07-27 21:12:00,68.5,67.0,29.81,SW,221,0.0,0.0,95,0.07,RA,,0.10,WeatherDisplay:10.37,2013-07-28 01:12:00,
2013-07-27 21:17:00,68.4,66.9,29.81,SW,221,0.0,0.0,95,0.07,,,0.10,WeatherDisplay:10.37,2013-07-28 01:17:00,
2013-07-27 21:22:00,68.3,66.8,29.82,SW,221,0.0,0.0,95,0.06,,,0.10,WeatherDisplay:10.37,2013-07-28 01:22:00,
2013-07-27 21:27:00,68.2,67.0,29.82,SW,221,0.0,0.0,96,0.07,RA,,0.11,WeatherDisplay:10.37,2013-07-28 01:27:00,
2013-07-27 21:32:00,68.1,66.9,29.82,SW,221,0.0,0.0,96,0.06,RA,,0.11,WeatherDisplay:10.37,2013-07-28 01:32:00,
2013-07-27 21:38:00,68.1,66.9,29.82,SW,221,0.0,0.0,96,0.05,,,0.11,WeatherDisplay:10.37,2013-07-28 01:38:00,
2013-07-27 21:43:00,68.0,66.8,29.82,SW,221,0.0,0.0,96,0.04,,,0.11,WeatherDisplay:10.37,2013-07-28 01:43:00,
2013-07-27 21:48:00,68.0,66.8,29.82,SW,221,0.0,0.0,96,0.04,,,0.11,WeatherDisplay:10.37,2013-07-28 01:48:00,
2013-07-27 21:53:00,67.9,66.7,29.82,SW,221,0.0,0.0,96,0.03,,,0.11,WeatherDisplay:10.37,2013-07-28 01:53:00,
2013-07-27 21:58:00,67.8,66.6,29.82,SW,221,0.0,0.0,96,0.02,,,0.11,WeatherDisplay:10.37,2013-07-28 01:58:00,
2013-07-27 22:03:00,67.6,66.4,29.83,SW,221,0.0,0.0,96,0.03,RA,,0.12,WeatherDisplay:10.37,2013-07-28 02:03:00,
2013-07-27 22:08:00,67.6,66.4,29.82,SW,221,0.0,0.0,96,0.03,RA,,0.13,WeatherDisplay:10.37,2013-07-28 02:08:00,
2013-07-27 22:13:00,67.5,66.3,29.82,SW,221,0.2,0.0,96,0.04,RA,,0.14,WeatherDisplay:10.37,2013-07-28 02:13:00,
2013-07-27 22:18:00,67.5,66.3,29.82,SW,221,0.0,0.0,96,0.04,RA,,0.14,WeatherDisplay:10.37,2013-07-28 02:18:00,
2013-07-27 22:24:00,67.5,66.6,29.82,SW,221,0.0,0.0,97,0.04,,,0.14,WeatherDisplay:10.37,2013-07-28 02:24:00,
2013-07-27 22:29:00,67.5,66.6,29.82,SW,221,0.0,0.0,97,0.04,RA,,0.15,WeatherDisplay:10.37,2013-07-28 02:29:00,
2013-07-27 22:34:00,67.5,66.6,29.81,SW,221,0.0,0.0,97,0.04,RA,,0.15,WeatherDisplay:10.37,2013-07-28 02:34:00,
2013-07-27 22:39:00,67.5,66.6,29.81,SW,221,0.0,0.0,97,0.05,RA,,0.16,WeatherDisplay:10.37,2013-07-28 02:39:00,
2013-07-27 22:44:00,67.6,66.7,29.80,SW,221,0.0,0.0,97,0.05,RA,,0.16,WeatherDisplay:10.37,2013-07-28 02:44:00,
2013-07-27 22:49:00,67.7,66.8,29.80,SW,221,0.0,0.0,97,0.05,,,0.16,WeatherDisplay:10.37,2013-07-28 02:49:00,
2013-07-27 22:55:00,67.7,66.8,29.80,SW,221,0.0,0.0,97,0.05,,,0.16,WeatherDisplay:10.37,2013-07-28 02:55:00,
2013-07-27 23:00:00,67.7,66.8,29.79,SW,221,0.0,0.0,97,0.05,,,0.16,WeatherDisplay:10.37,2013-07-28 03:00:00,
2013-07-27 23:05:00,67.6,66.7,29.79,SW,221,0.0,0.0,97,0.03,,,0.16,WeatherDisplay:10.37,2013-07-28 03:05:00,
2013-07-27 23:10:00,67.7,66.8,29.79,SW,221,0.0,0.0,97,0.03,,,0.16,WeatherDisplay:10.37,2013-07-28 03:10:00,
2013-07-27 23:15:00,67.7,66.8,29.79,SW,221,0.0,0.0,97,0.02,,,0.16,WeatherDisplay:10.37,2013-07-28 03:15:00,
2013-07-27 23:21:00,67.8,67.2,29.79,SW,221,0.0,0.0,98,0.02,,,0.16,WeatherDisplay:10.37,2013-07-28 03:21:00,
2013-07-27 23:26:00,67.8,67.2,29.79,SW,221,0.1,1.1,98,0.01,,,0.16,WeatherDisplay:10.37,2013-07-28 03:26:00,
2013-07-27 23:32:00,67.8,67.2,29.79,SW,221,0.0,0.0,98,0.01,,,0.16,WeatherDisplay:10.37,2013-07-28 03:32:00,
2013-07-27 23:37:00,67.9,67.3,29.78,SW,221,0.0,0.0,98,0.01,,,0.16,WeatherDisplay:10.37,2013-07-28 03:37:00,
2013-07-27 23:42:00,67.9,67.3,29.79,SW,221,0.0,0.0,98,0.00,,,0.16,WeatherDisplay:10.37,2013-07-28 03:42:00,
2013-07-27 23:47:00,67.9,67.3,29.79,South,189,0.1,1.1,98,0.00,,,0.16,WeatherDisplay:10.37,2013-07-28 03:47:00,
2013-07-27 23:52:00,67.9,67.3,29.79,South,188,0.0,0.0,98,0.00,,,0.16,WeatherDisplay:10.37,2013-07-28 03:52:00,
2013-07-27 23:57:00,67.9,67.3,29.79,South,188,0.0,0.0,98,0.00,,,0.16,WeatherDisplay:10.37,2013-07-28 03:57:00,